Location: Calvera
(42.3882°N, 0.6137°E)
Time: 13:40:47
(UTC+00:00)

USA 290 - Pass Details

Date: 28 October 2020
Orbit: 395 x 418 km, 73.6° (Epoch: 28 October)

Event Time Altitude Azimuth Distance (km) Brightness Sun altitude
Exits shadow 05:40:16 13° 274° (W) 1,300 4.1 -9.1°
Maximum altitude 05:41:32 15° 301° (WNW) 1,185 4.0 -8.9°
Drops below altitude 10° 05:43:33 10° 340° (NNW) 1,477 4.7 -8.5°
Sets 05:46:14 0° 4° (N) 2,349 6.0 -8.0°
